Regional Weather Roundup
Issued by NWS

Home | Current Version | Previous Version | Text Only | Print | Product List | Glossary On
Versions: 1 2 3 4 5 6 7 8 9 10 11 12 13 14 15 16 17 18 19 20 21 22 23 24 25 26 27 28 29 30 31 32 33 34 35 36 37 38 39 40 41 42 43 44 45 46 47 48 49 50
166
ASUS42 KKEY 281810
RWRKEY

FLORIDA REGIONAL WEATHER ROUNDUP FOR THE FLORIDA KEYS
NATIONAL WEATHER SERVICE KEY WEST FLORIDA
200 PM EDT WED JUN 28 2017

...SOUTH FLORIDA AND THE KEYS...

CITY           SKY/WX    TMP DP  RH WIND       PRES   REMARKS
FORT MYERS     PTSUNNY   93  73  52 N5        30.02F HX 102
SW REGIONAL AP PTSUNNY   93  72  50 E6        30.02F HX 101
NAPLES         MOSUNNY   90  74  59 W10       30.02F HX  99
MIAMI          TSTM      80  70  71 NW14G21   30.04R
WEST KENDALL   HVY RAIN  81  74  79 N9        30.04R
HOMESTEAD      PTSUNNY   92  79  66 SE8       30.02S HX 108
MARATHON       SUNNY     90  78  68 VRB5      30.03F HX 104
BOCA CHICA NAS MOSUNNY   88  76  67 VRB5      30.03F HX  99
KEY WEST INTL  SUNNY     86  75  69 S5        30.04S HX  95

...INTERNATIONAL WEATHER...

CITY           SKY/WX    TMP DP  RH WIND       PRES   REMARKS
NASSAU BAHAMAS MOSUNNY   93  70  46 S3        30.04  HX  99
CANCUN MEXICO  PTSUNNY   88  77  70 SE18      29.98F HX 100
COZUMEL MEXICO MOSUNNY   88  77  70 SE14      29.95F HX 100

ADJACENT COASTAL WATERS...

STATION/POSITION TIME  SKY/WX   TEMP    WIND        PRES    WAVE
                                AIR SEA DIR/SP/G            HT/PER
                 (UTC)          (F)     (DEG/KT/KT) (MB)    (FT/S)
PULASKI SHOAL LI 1800            84     140/  4/  4 1017.4S
SAND KEY         1750            83     170/  2/  4 1017.7F
LONG KEY         NOT AVBL
MOLASSES REEF    1700            84 85  170/  3/  4 1017.7R
FOWEY ROCKS      1700            83 84  110/  4/  5 1017.8F
Buoy 42097       1730               86                N/A     1/ 6

$$




USA.gov is the U.S. government's official web portal to all federal, state and local government web resources and services.